RH
94 97 100 100 98 95 91 92 92 92 90 86 86 89 89 87 82 70 50 36 35 32 21 11 6 4 3 3 3 3 3 2 2 3 3 3 3 3 3 4 3 4 4 3 4 3 4 4 4 4 4 4 4 4 4 4 5 5 5 5 6 6 6 7 7 7 8 8 8 8 9 9 9 9 10 10 10 10 10 10 10 11 12 12 14 17 21 23
93 96 100 101 98 97 94 94 95 93 91 90 94 94 92 86 69 48 36 36 32 21 10 5 4 3 3 4 3 3 2 2 3 3 3 3 3 3 3 4 4 3 4 3 4 4 4 4 4 4 4 4 4 4 4 4 5 5 5 5 6 6 6 7 7 7 8 8 9 9 9 9 10 10 10 10 10 10 10 10 10 12 12 14 16 20 24 26
91 95 99 100 98 98 97 97 95 92 92 94 98 99 93 74 48 36 36 32 19 10 5 3 3 3 4 4 3 2 2 3 3 3 3 3 3 4 4 4 4 3 3 3 3 3 3 3 3 4 4 4 4 4 4 5 5 5 5 6 6 6 6 7 8 8 8 9 9 9 9 10 10 11 11 11 12 11 10 10 10 11 12 16 20 26 31 35
91 93 97 100 99 100 100 99 95 94 95 97 101 99 78 50 36 37 32 19 9 5 4 3 3 4 4 3 3 3 2 3 3 3 3 3 4 4 4 3 3 3 3 3 3 3 3 3 3 3 4 4 4 4 4 5 5 5 5 6 6 6 6 7 8 8 9 9 9 9 10 11 11 12 13 13 13 12 11 11 12 13 15 20 26 34 41 47
92 90 93 97 98 100 100 98 97 96 96 100 101 81 51 36 38 33 19 9 5 3 3 3 4 4 3 3 3 3 3 3 3 3 3 3 4 3 4 3 3 3 3 3 3 3 3 3 4 4 4 4 4 4 5 5 5 5 6 6 6 6 7 8 8 9 9 9 9 10 11 12 13 13 14 14 13 13 12 13 15 19 24 30 37 44 49 55
94 91 91 97 99 100 100 100 100 95 93 96 81 51 38 39 34 19 8 5 3 3 4 4 4 3 3 2 3 3 3 3 3 3 3 3 4 4 3 3 3 3 3 3 3 3 4 4 4 4 4 5 5 4 5 5 5 5 6 6 6 7 8 8 9 9 9 9 10 12 13 13 14 14 14 14 13 13 14 17 23 31 39 45 51 55 58 61
98 95 94 99 100 100 100 99 100 97 89 75 51 38 40 34 19 9 6 4 3 4 4 4 4 3 3 3 3 3 3 3 3 3 4 4 4 4 3 3 3 3 3 3 3 3 4 4 4 4 5 5 5 5 5 6 6 6 6 6 6 7 8 9 9 9 10 10 12 13 13 14 15 15 15 14 13 13 15 21 32 43 52 57 61 63 65 66
101 99 99 100 98 98 94 93 98 91 69 47 39 41 34 19 9 6 4 3 4 4 4 4 3 3 3 3 3 3 3 3 4 4 4 4 4 3 3 3 3 3 3 3 4 4 4 5 4 5 5 5 5 5 6 6 7 7 7 6 7 8 9 10 10 10 10 12 13 14 14 15 16 16 14 13 12 12 14 19 29 40 50 57 60 63 66 68
101 99 99 96 92 95 91 90 87 65 44 41 42 34 18 9 7 4 3 4 5 4 3 3 3 3 3 3 3 3 3 4 4 4 4 4 4 3 3 3 3 3 3 4 4 4 4 5 5 5 5 5 6 6 7 7 7 7 7 7 7 8 10 11 11 12 12 13 14 14 16 17 16 15 13 13 11 11 12 15 22 31 39 46 52 58 64 69
100 95 94 92 90 97 92 79 63 44 42 43 31 18 10 8 5 3 4 5 4 4 3 3 3 3 3 3 3 3 4 4 4 4 4 4 3 3 3 3 3 3 4 4 4 5 5 5 5 5 6 6 7 7 7 8 8 8 8 8 8 9 11 12 13 13 13 14 14 15 17 16 15 14 13 12 11 9 11 13 17 22 28 34 41 50 60 68
97 96 97 97 94 91 76 56 47 45 43 30 16 11 9 6 3 4 5 5 4 3 3 3 3 3 3 3 4 4 4 4 4 4 3 4 3 3 3 3 3 4 4 4 5 5 5 5 5 6 6 7 6 7 7 8 8 8 8 9 10 10 11 12 12 13 14 15 15 15 17 16 14 13 12 11 9 8 8 10 13 17 23 29 35 43 52 60
98 99 100 97 84 70 55 48 49 44 29 16 12 10 6 4 5 6 5 5 4 3 3 3 3 3 3 4 4 4 5 4 4 4 3 3 3 3 3 4 4 4 4 5 5 5 6 6 6 6 7 7 7 7 8 8 9 9 10 11 12 10 9 11 12 14 15 16 15 17 17 16 14 13 12 10 8 7 6 7 9 13 18 23 29 36 43 50
100 98 92 79 62 52 51 52 45 29 16 13 11 6 4 5 6 6 5 5 4 3 3 3 3 4 4 4 5 5 4 4 4 4 4 3 3 3 4 4 4 4 5 5 5 6 6 6 7 7 7 7 7 7 8 10 10 11 11 10 9 9 9 11 14 15 16 17 17 18 18 16 14 13 11 9 7 5 4 5 6 8 10 13 18 24 32 40
94 83 71 58 52 55 55 45 28 16 13 10 6 4 5 5 6 6 5 5 4 3 3 3 4 4 5 5 4 5 4 4 4 4 4 4 4 4 4 4 4 5 5 5 6 6 7 7 7 7 7 7 7 8 10 11 10 9 8 8 8 9 9 11 13 15 16 18 19 19 18 16 14 13 11 8 6 5 4 3 3 4 5 6 8 13 21 33
78 63 56 57 62 59 44 26 15 12 9 5 4 4 5 6 6 5 4 4 3 3 4 4 4 5 5 5 5 5 4 4 4 4 4 4 4 4 4 5 5 5 5 6 6 7 7 7 8 8 8 8 8 9 10 9 8 7 7 7 8 9 10 10 13 15 17 19 20 20 18 16 14 12 10 8 6 4 3 3 3 3 3 3 5 8 14 23
63 58 61 68 62 43 23 13 11 8 4 4 4 5 6 5 5 4 4 3 3 4 4 4 5 5 5 5 5 4 4 4 4 4 4 4 4 4 4 5 5 6 6 7 7 7 7 8 9 9 9 10 10 9 8 7 7 6 6 7 8 8 9 11 13 16 18 19 21 21 19 16 14 12 10 7 5 4 3 3 3 2 3 3 3 6 10 16
67 70 70 62 40 20 12 10 8 4 3 5 5 6 6 5 4 4 3 4 4 4 5 5 5 5 5 5 5 5 4 4 4 4 4 4 4 4 5 5 5 6 7 7 7 7 8 9 9 9 9 10 9 8 6 6 6 6 6 7 9 9 10 12 13 15 17 20 20 20 19 16 14 12 9 7 5 4 3 3 3 3 3 3 3 5 7 10
78 74 61 39 18 11 10 8 4 3 5 5 5 6 6 5 4 3 4 4 4 5 5 5 5 5 5 5 5 5 4 4 4 4 5 5 4 4 5 5 6 7 7 7 8 8 9 9 9 10 10 9 8 7 6 6 5 6 7 8 9 10 11 12 13 13 16 20 20 20 19 17 15 13 10 8 6 4 4 3 3 3 2 3 3 5 7 8
77 61 40 20 10 10 8 4 4 4 5 5 6 7 5 4 4 4 4 4 5 5 5 5 5 5 5 5 5 5 5 5 5 4 5 5 5 5 6 6 7 7 8 8 9 10 10 10 11 11 9 8 7 6 6 6 7 7 8 8 9 10 12 14 13 12 14 18 20 20 19 17 15 13 10 8 6 4 3 3 3 3 3 4 4 9 18 23
65 42 22 11 9 8 4 4 5 5 5 6 6 6 5 4 4 4 4 5 5 5 5 5 5 6 5 5 5 5 5 5 5 5 5 5 5 6 7 7 8 8 9 9 9 10 10 11 11 10 8 8 7 7 7 7 7 8 8 9 10 10 11 13 14 13 13 17 20 20 19 17 16 14 11 8 6 4 4 3 3 3 4 5 4 9 18 23
52 28 13 9 7 4 3 5 5 5 5 6 6 5 5 5 4 5 5 5 5 5 5 5 6 6 5 6 5 5 5 5 6 5 5 6 6 7 8 9 9 10 10 10 10 11 11 11 10 9 9 9 8 8 7 7 8 9 10 10 10 9 11 14 14 12 15 18 20 19 18 17 16 14 11 9 6 4 4 3 4 4 4 5 5 6 9 11
39 17 9 8 4 3 5 4 4 5 6 6 6 5 4 4 5 5 5 5 5 5 6 6 6 6 5 5 5 5 6 6 6 5 6 7 7 9 10 10 10 11 11 11 12 11 11 11 10 10 10 9 9 8 8 8 9 10 10 10 10 10 11 13 14 14 17 19 18 18 17 16 16 15 12 9 7 4 3 3 3 4 4 4 5 6 8 11
27 11 8 5 2 4 5 4 5 6 6 6 5 4 4 5 5 5 5 5 5 6 6 6 6 6 6 6 6 6 6 6 6 7 7 8 9 10 10 11 11 12 12 12 12 12 11 11 11 11 11 10 9 8 9 10 11 11 11 10 11 12 12 13 14 16 17 17 17 18 18 17 17 16 13 9 7 4 3 3 3 3 3 4 5 8 12 16
18 9 7 3 3 5 4 5 6 6 6 5 5 4 4 5 5 5 5 5 6 6 6 6 6 6 6 6 7 7 7 7 8 8 8 9 9 10 11 11 11 12 13 13 13 13 12 12 12 12 11 10 10 9 10 10 11 11 11 12 13 14 16 16 17 17 16 16 17 18 18 18 17 17 14 10 7 5 4 3 3 3 3 4 6 9 14 20
12 8 5 3 5 5 5 7 7 7 6 4 5 5 4 5 5 5 5 6 6 6 6 6 6 6 7 7 7 8 8 8 9 9 9 9 10 11 11 12 12 13 14 14 14 14 13 14 14 13 12 11 11 10 10 10 11 12 13 15 15 15 19 20 20 17 16 17 19 18 18 19 18 17 15 11 8 5 4 3 3 3 3 4 6 11 17 25
10 7 3 4 5 5 6 7 7 6 5 4 5 5 5 6 6 6 6 6 6 6 7 7 7 7 7 7 8 9 9 8 9 9 9 10 11 11 12 12 13 14 14 15 15 15 15 15 15 14 14 12 11 10 10 10 12 14 15 17 18 19 21 23 21 17 17 20 20 20 20 19 18 18 16 12 8 6 5 4 3 3 3 4 7 12 19 29
8 4 4 5 6 6 8 7 6 5 4 5 5 5 6 6 6 6 6 6 6 6 7 7 8 7 8 8 8 9 9 9 10 9 10 12 11 12 13 13 14 15 15 16 16 16 16 16 16 16 15 13 12 11 10 11 12 14 17 19 20 20 22 23 21 17 19 21 21 22 22 20 19 18 16 12 9 6 5 4 3 3 3 4 7 13 22 31
5 3 5 5 6 8 8 6 5 5 4 5 5 5 6 6 6 6 6 6 6 7 7 7 7 8 8 9 9 10 9 9 10 10 11 12 12 12 13 14 15 16 16 17 17 17 16 17 17 17 16 15 12 12 12 13 14 15 17 20 20 21 21 22 21 20 21 22 23 24 23 21 20 19 16 12 9 6 5 4 3 3 3 4 7 14 24 33
4 4 5 6 7 8 6 5 5 5 5 5 6 6 6 6 6 6 6 7 7 8 8 8 8 8 9 10 10 10 10 10 11 11 11 12 12 13 14 15 16 17 18 18 17 17 17 18 18 18 17 15 14 14 14 14 15 16 16 17 20 22 21 20 22 23 24 24 26 26 25 23 22 20 16 12 10 7 5 5 4 3 3 4 7 13 21 29
4 5 5 6 8 7 6 5 5 5 5 6 6 6 6 6 7 7 7 7 7 7 7 8 9 9 10 11 10 10 11 11 11 12 12 12 13 14 15 17 18 18 18 18 18 18 18 18 19 19 18 17 16 15 14 14 16 15 15 16 18 19 18 20 23 27 27 27 28 28 27 26 23 21 18 14 11 9 7 6 4 4 3 4 7 11 17 24
5 5 5 7 7 7 6 5 5 5 6 6 6 6 7 7 7 7 7 7 7 7 7 8 9 10 10 11 11 11 12 13 13 14 14 14 15 16 18 19 19 18 17 16 17 17 18 18 19 20 20 20 17 15 14 15 17 17 17 18 17 15 16 20 24 30 32 30 31 30 27 27 25 23 20 17 14 11 9 6 5 4 4 4 6 9 15 22
5 5 6 8 7 7 6 5 5 5 6 6 6 6 7 7 7 7 7 7 7 7 8 9 9 10 11 11 12 12 13 14 14 15 15 15 17 18 18 19 18 17 16 16 17 16 17 18 19 20 21 21 18 16 15 16 18 20 19 17 15 13 14 19 25 31 36 34 32 31 29 29 28 24 21 20 17 13 10 7 6 5 4 4 5 8 14 20
5 7 8 8 7 6 5 5 5 6 6 6 6 7 7 7 7 7 7 7 7 7 8 9 10 10 11 12 13 13 14 15 15 15 16 16 17 18 19 19 18 18 18 18 17 16 16 18 19 20 22 23 21 18 16 17 20 22 22 21 19 19 24 29 31 33 37 37 34 32 32 31 29 26 24 21 18 15 12 9 7 5 4 3 5 8 12 17
7 9 9 8 6 6 6 5 6 6 6 6 7 7 7 7 7 7 8 8 8 8 8 9 10 11 12 12 13 14 14 15 15 15 16 17 18 20 21 21 20 20 19 19 18 17 17 19 20 22 25 26 26 23 20 20 22 23 28 30 28 31 37 41 39 36 38 37 35 36 37 34 30 28 25 23 20 16 13 9 7 5 4 4 4 6 10 14
9 9 7 6 6 6 6 5 6 6 6 6 6 7 7 7 7 7 8 8 8 8 9 10 10 11 12 13 13 14 14 15 15 16 17 18 19 21 22 22 22 21 20 19 19 18 18 19 21 24 27 28 29 28 24 23 24 27 32 35 36 39 42 42 40 40 41 40 40 40 39 36 32 29 27 25 22 18 14 10 7 5 5 4 4 5 7 11
9 7 6 6 6 6 5 6 6 6 6 6 6 7 7 7 8 8 8 8 8 8 9 10 11 11 12 13 13 14 14 15 15 16 17 18 20 21 23 23 23 22 21 20 20 20 19 20 22 25 28 30 31 31 30 28 27 30 35 39 42 43 43 43 43 44 44 44 45 42 37 35 33 31 30 28 24 20 16 13 10 7 6 5 4 4 5 8
8 6 6 6 6 6 6 6 6 6 6 6 6 7 7 7 7 8 8 8 8 9 9 10 11 11 12 12 13 13 14 14 15 16 17 18 20 21 23 24 23 23 21 21 22 21 21 22 23 25 28 31 32 31 30 29 29 33 39 43 44 42 43 48 50 47 43 43 46 45 40 37 36 34 32 29 26 23 19 16 13 10 8 6 5 4 4 6
7 6 6 6 6 6 6 6 6 6 6 6 6 7 6 7 7 7 8 8 8 9 10 10 10 11 11 12 13 13 13 14 14 15 17 18 20 21 23 25 25 24 23 22 24 23 22 23 24 25 28 33 36 33 27 26 30 35 39 44 47 48 50 55 57 53 49 46 46 47 45 41 40 38 34 30 28 25 22 19 15 13 10 8 6 5 4 5
6 6 6 6 7 6 6 6 6 6 6 6 6 6 6 7 7 7 8 8 9 9 9 10 10 11 11 11 12 13 13 14 14 15 17 18 20 22 24 25 26 26 25 24 25 25 23 23 24 26 29 34 38 35 30 31 34 35 38 44 50 54 56 57 59 60 59 54 50 49 47 45 43 40 36 33 32 29 25 21 18 15 12 9 7 6 5 5
6 7 7 7 7 7 7 7 6 7 6 6 7 7 7 7 6 7 7 8 8 9 9 10 10 11 11 11 12 13 13 13 14 15 17 18 20 22 24 26 27 28 27 26 26 26 24 23 25 27 30 34 37 37 37 39 40 41 43 48 53 57 59 58 60 64 65 62 57 53 50 48 45 41 39 39 38 34 28 24 20 17 14 11 8 6 5 5
7 7 7 7 8 8 8 7 8 8 8 9 10 9 10 9 8 7 7 7 8 9 9 10 10 10 11 11 12 12 13 13 14 15 16 18 20 22 24 26 27 28 28 27 26 25 24 23 25 27 30 36 39 39 39 39 42 46 50 52 56 60 64 65 67 69 69 67 63 58 54 52 48 44 43 44 41 36 31 27 23 20 16 13 10 8 6 5
7 8 8 8 8 9 9 9 10 10 11 11 11 11 11 11 11 10 8 8 8 8 9 9 10 10 10 11 11 12 12 13 14 15 17 19 20 22 25 26 28 29 28 27 25 25 24 23 24 27 29 34 39 39 38 38 39 46 51 54 56 61 67 72 74 73 72 70 66 62 61 59 54 50 48 46 43 39 34 30 27 22 19 16 12 10 7 5
8 9 9 9 9 9 10 10 11 11 11 10 10 10 10 10 11 11 10 9 8 8 9 9 10 10 10 11 11 11 12 12 14 15 16 19 21 23 25 27 29 29 29 28 26 25 23 21 22 25 26 31 35 35 37 38 37 41 49 56 60 64 69 74 74 72 72 71 66 63 65 64 58 54 51 47 44 41 36 33 29 25 22 19 15 12 9 7
9 9 9 9 9 10 10 10 10 10 9 9 9 9 9 10 11 11 12 11 9 8 8 9 9 9 10 10 10 11 11 12 13 15 17 19 21 23 25 28 30 30 30 30 29 27 25 23 22 24 25 28 32 34 36 39 40 43 52 62 68 68 68 71 72 69 70 73 72 69 67 66 62 56 53 49 45 42 39 35 32 28 25 22 18 14 11 8
9 9 9 9 9 9 10 10 10 9 9 9 9 9 9 10 11 12 12 12 10 9 8 8 9 9 9 10 10 10 10 12 13 15 17 19 21 24 26 29 31 32 33 33 33 32 30 27 25 26 29 32 37 40 43 47 48 50 56 63 67 68 68 72 73 71 71 76 80 75 67 65 65 59 54 51 46 43 41 37 34 32 28 25 22 18 14 10
9 9 9 9 9 9 10 10 9 9 9 9 9 10 10 11 11 12 12 12 11 10 9 8 9 9 9 9 10 10 10 12 14 16 18 20 22 24 26 29 33 34 35 36 36 35 33 30 28 29 32 37 43 44 47 51 53 53 55 59 63 67 68 71 76 76 74 73 77 78 72 67 66 62 55 52 48 45 43 40 36 34 31 28 25 21 17 13
9 9 9 9 10 9 10 10 10 10 10 11 11 12 12 12 13 13 12 12 12 10 9 9 9 9 9 9 9 10 10 12 15 17 19 22 23 25 27 30 33 35 37 36 36 37 35 31 29 31 33 37 42 43 46 52 54 53 54 56 61 67 69 70 75 77 75 72 73 78 79 72 68 64 59 55 52 49 46 43 39 36 33 31 28 25 21 17
8 9 9 10 10 11 11 12 13 13 13 13 13 14 14 14 14 14 13 12 12 11 10 11 10 10 9 9 9 10 11 13 16 19 21 23 25 26 28 30 33 36 37 37 36 36 36 32 29 31 35 37 41 42 45 52 55 54 54 54 58 65 68 68 70 72 74 76 72 72 76 75 70 68 64 59 57 53 49 46 42 39 37 33 31 28 24 21
8 9 10 10 11 12 13 14 14 14 14 14 14 14 14 14 14 14 13 13 12 12 12 12 12 11 10 10 10 11 13 15 18 21 22 24 26 28 29 31 33 35 36 37 36 35 36 34 29 29 35 38 40 41 43 49 54 54 54 55 58 63 66 66 66 68 72 75 73 70 73 76 74 71 69 64 61 58 53 49 46 42 40 37 34 32 28 24
8 9 10 10 12 13 14 14 14 14 14 13 14 14 14 14 14 14 13 13 13 13 13 13 13 12 12 12 12 13 15 18 21 23 24 26 27 29 31 32 34 35 36 36 36 35 35 34 29 28 32 36 37 37 38 43 50 53 53 56 58 61 67 69 66 68 72 74 75 74 74 77 78 77 74 70 65 62 57 53 49 46 43 41 38 35 31 27
8 9 10 11 12 14 14 13 13 13 13 14 14 14 14 14 14 14 14 14 14 14 14 14 14 14 14 14 14 16 17 19 22 24 25 27 28 30 32 33 34 36 37 37 37 36 34 33 30 27 29 34 34 33 34 39 45 48 52 59 60 60 68 72 67 68 73 74 77 81 81 82 84 81 78 75 70 66 62 57 53 49 47 46 41 37 34 30
7 8 10 11 12 13 13 13 13 13 13 14 14 14 15 15 15 16 15 15 15 15 15 15 16 16 16 16 17 18 19 21 23 25 26 28 29 31 32 34 35 36 37 38 38 37 35 32 30 27 27 33 36 35 36 39 42 47 54 61 62 59 64 72 70 68 74 78 82 87 88 87 87 85 82 80 76 70 66 62 57 53 52 50 45 40 37 34
Wind_Speed
29 30 30 29 28 27 25 23 20 17 15 15 13 10 9 8 7 4 4 5 6 5 6 8 10 11 11 10 10 11 12 12 12 12 12 14 15 16 16 17 18 18 19 20 21 23 25 26 27 28 28 29 30 31 32 33 34 35 36 37 37 38 39 41 42 42 44 44 46 47 47 48 50 51 50 52 54 56 59 60 61 63 64 64 64 64 64 64
29 30 30 29 28 27 25 23 19 17 16 14 12 10 9 8 6 5 7 7 7 7 8 10 11 11 10 10 10 11 11 11 11 12 13 14 14 15 16 16 17 18 19 21 23 24 26 26 27 28 28 30 31 32 33 34 35 36 37 38 39 40 40 41 43 44 45 46 46 48 48 49 50 52 52 55 58 60 63 64 64 66 67 67 67 67 67 67
28 29 30 29 28 27 25 22 20 18 16 14 12 11 9 7 7 8 9 8 8 10 11 11 11 11 10 10 10 10 11 12 12 12 13 13 13 14 15 16 17 19 21 22 24 25 26 26 27 28 30 31 32 33 34 35 36 37 38 40 41 42 43 43 44 45 46 47 47 48 49 50 50 52 55 58 61 65 68 68 67 68 69 70 69 69 68 68
27 28 29 28 27 25 24 22 20 19 16 14 13 10 9 9 10 10 9 10 11 12 12 12 11 10 10 10 9 10 11 11 11 11 11 11 13 14 15 17 19 21 22 23 24 25 25 26 28 30 31 32 33 34 35 36 37 38 40 41 42 43 44 45 45 46 47 48 49 50 50 51 52 54 57 60 64 69 72 72 72 71 71 71 71 70 69 68
29 28 27 26 25 24 23 22 21 19 17 14 13 11 10 12 12 11 11 12 13 13 12 11 10 11 11 10 9 11 10 9 10 10 10 12 13 14 16 18 20 21 22 23 23 24 25 27 29 30 31 32 33 34 36 37 38 39 40 41 43 44 45 46 46 47 48 50 50 51 51 52 55 57 58 62 67 70 72 73 74 74 73 72 71 70 69 68
30 28 26 25 23 22 22 22 21 19 16 15 13 13 13 13 12 12 13 14 14 13 12 10 11 11 10 9 10 11 9 9 9 9 11 13 14 16 18 19 21 21 22 22 23 24 26 28 29 31 32 33 34 35 36 38 39 40 41 42 43 44 45 46 47 48 49 51 51 51 52 54 56 59 61 65 69 71 72 74 74 73 73 71 70 69 68 68
31 28 25 23 22 21 22 22 19 17 16 15 15 15 15 14 14 14 15 15 14 13 11 11 11 10 9 9 11 10 8 9 9 10 12 14 15 17 18 20 20 20 20 21 24 26 28 29 30 31 32 33 35 36 37 38 39 41 41 43 44 45 46 46 48 49 50 51 51 52 54 55 56 61 64 68 70 72 74 75 74 73 71 70 68 67 66 65
30 27 25 24 23 23 22 21 19 18 18 17 17 17 15 15 15 16 16 15 13 12 12 11 10 9 9 9 10 8 8 9 9 11 13 14 16 17 18 19 19 19 21 23 25 27 28 29 30 31 32 34 36 37 39 39 39 41 42 43 45 46 47 47 49 50 51 52 53 54 56 56 58 62 66 69 71 72 74 75 76 75 73 71 68 66 64 62
28 26 26 25 25 23 21 21 20 20 19 19 19 17 16 16 16 16 16 14 12 11 12 11 10 9 8 9 9 7 8 9 10 12 14 15 16 17 18 18 18 20 22 24 26 27 28 29 30 32 34 35 37 38 39 40 41 42 43 44 46 47 48 49 49 51 53 53 55 56 56 58 61 64 68 70 72 72 72 73 75 75 75 72 69 66 62 59
27 26 25 25 25 23 22 22 21 21 21 20 19 18 18 17 17 16 15 13 12 11 11 10 10 9 8 9 8 7 9 10 11 13 14 15 16 16 16 17 19 21 23 25 26 27 29 30 32 33 35 36 37 38 39 40 41 42 43 45 48 49 48 49 50 53 56 56 57 57 57 60 63 66 69 72 73 73 72 72 72 72 72 71 68 66 62 59
28 26 25 25 25 25 25 23 22 22 22 20 19 19 19 18 17 16 14 13 12 11 10 9 9 9 9 8 6 8 10 11 12 13 14 15 15 16 17 18 21 22 24 25 26 28 30 32 33 34 35 36 38 38 39 39 40 42 44 45 47 50 50 50 53 55 56 57 59 59 59 62 64 67 70 72 74 73 72 70 69 68 67 67 66 65 64 61
29 27 28 28 26 26 25 24 23 22 21 21 21 20 19 18 17 15 13 12 11 10 9 8 8 9 8 6 6 10 11 11 12 13 14 15 15 16 18 20 21 23 24 25 27 29 30 32 33 35 36 37 38 39 39 40 41 42 44 45 48 52 54 54 55 56 57 59 60 59 60 63 65 66 70 72 73 72 70 67 65 64 63 62 62 62 62 61
31 29 29 29 27 27 26 26 24 22 22 22 21 20 19 18 16 14 13 12 10 9 9 9 9 9 7 6 10 11 11 12 13 14 14 15 16 18 19 21 21 23 24 26 28 29 30 32 33 35 36 38 39 39 40 39 40 41 43 47 50 54 56 55 55 56 58 60 61 60 60 64 65 66 69 71 71 70 68 65 62 60 59 58 58 59 58 58
32 30 28 28 28 28 27 26 23 22 23 22 21 20 19 17 15 13 12 11 10 9 9 8 8 7 7 9 12 11 12 13 14 14 15 16 17 19 19 20 22 24 26 27 29 30 31 32 34 35 37 39 41 40 39 38 39 42 45 50 53 54 56 57 56 58 60 59 60 61 62 65 66 66 69 71 71 70 67 64 61 58 57 56 55 56 56 56
31 29 27 28 29 28 27 25 24 24 23 22 22 20 18 16 14 12 11 11 10 10 9 8 8 7 9 12 12 12 13 14 14 14 15 16 17 18 19 21 23 25 27 28 29 30 31 32 34 35 38 40 41 40 39 40 43 46 48 51 53 55 57 59 58 59 61 60 59 61 62 66 68 68 71 72 71 70 67 64 60 58 56 54 53 53 54 55
30 29 28 28 28 27 26 25 25 24 23 23 21 19 17 15 13 12 11 11 10 10 9 8 9 9 12 14 13 13 13 13 14 15 15 16 17 18 20 22 24 25 27 28 29 30 31 32 34 36 38 39 39 40 42 43 45 47 49 51 53 55 57 59 60 60 62 62 62 63 64 68 70 70 72 73 72 70 66 63 59 56 54 53 52 52 52 53
29 30 29 28 26 26 26 26 25 24 23 22 20 18 16 14 14 12 11 10 9 9 9 9 11 12 14 14 13 13 13 14 14 15 16 17 18 19 21 23 25 26 27 28 29 30 32 33 35 36 37 37 38 41 43 44 45 47 50 52 53 56 59 60 62 63 64 64 65 66 67 70 71 71 72 73 73 71 67 63 58 54 52 50 49 49 50 51
28 30 29 26 26 26 26 26 25 24 23 21 19 17 15 14 13 12 11 10 10 10 10 11 13 14 14 14 14 14 15 15 15 16 16 17 19 20 22 24 26 27 28 30 31 32 33 34 35 35 35 37 39 42 44 46 48 50 52 54 55 56 58 61 64 66 66 65 67 68 67 70 71 71 73 74 75 74 70 66 61 56 52 49 48 49 49 50
29 29 27 26 26 26 26 26 25 24 22 20 19 17 15 15 13 11 11 11 11 12 13 13 15 15 14 14 15 14 15 15 15 16 16 18 20 21 23 24 26 28 29 31 31 31 32 33 33 33 35 39 42 44 46 47 49 51 53 55 57 57 58 61 64 68 69 67 68 69 67 70 72 72 75 77 78 79 76 72 67 63 59 55 53 52 50 49
29 28 27 27 27 26 26 25 24 23 21 20 18 17 16 14 13 12 11 11 13 15 14 15 16 15 14 14 14 14 14 15 15 16 17 19 21 22 24 26 28 29 30 30 31 31 32 33 32 34 38 41 43 45 46 47 49 51 53 55 57 58 58 60 63 67 69 68 68 69 70 72 73 74 77 80 81 81 80 77 73 69 64 60 57 53 50 48
28 27 27 27 27 27 26 25 24 22 20 19 18 17 16 14 12 12 12 13 16 16 15 15 15 14 14 14 14 14 14 14 15 17 19 20 22 23 25 27 28 28 28 30 30 31 32 33 34 37 39 41 43 44 46 47 49 51 53 54 57 60 60 59 62 66 68 67 68 69 73 76 75 76 79 80 82 82 81 79 76 72 67 63 60 56 53 50
27 27 27 27 27 27 25 24 22 21 20 19 17 17 16 14 13 12 13 16 17 16 15 15 14 13 13 13 13 13 13 14 16 18 20 21 22 24 25 26 27 27 29 31 31 32 34 35 36 38 39 41 42 44 46 47 49 51 53 55 57 60 61 60 62 66 67 67 70 72 75 80 79 77 79 81 82 83 81 79 76 73 70 66 62 58 55 52
27 27 27 27 26 26 24 23 21 20 19 19 17 17 16 15 13 13 14 17 17 15 14 13 12 12 12 12 13 13 14 16 18 19 20 21 23 24 25 26 27 28 30 32 33 34 35 36 37 39 40 41 43 45 46 47 49 50 53 55 57 58 60 62 63 65 66 69 72 74 76 81 81 77 79 81 82 82 81 79 77 75 71 67 63 59 56 53
26 27 27 26 26 24 23 22 20 19 19 18 17 17 16 15 14 14 16 17 16 14 12 11 11 11 11 12 13 15 16 17 18 19 20 22 23 24 25 26 27 29 30 32 33 35 36 37 38 39 40 42 44 45 46 48 49 51 53 56 58 58 59 61 64 65 68 71 74 76 77 79 81 79 79 81 82 83 82 80 79 77 73 68 64 60 57 54
27 27 26 26 25 23 22 21 20 19 18 18 17 16 16 15 15 15 16 15 14 12 10 9 9 10 11 12 13 15 17 17 18 19 20 22 24 24 25 27 29 30 32 33 34 36 37 38 38 40 41 42 44 45 47 49 51 52 54 55 57 59 58 58 62 66 69 72 74 77 77 76 79 80 79 81 83 83 83 82 80 78 75 70 65 61 57 53
27 27 26 25 23 22 21 20 20 19 19 18 17 16 16 15 15 16 15 14 12 10 9 8 8 9 11 12 14 16 16 17 17 18 21 23 24 25 27 29 31 32 33 34 35 36 37 38 39 41 42 43 44 46 47 50 51 52 54 55 57 58 57 57 61 67 70 70 72 76 75 75 78 79 79 81 83 83 84 84 82 80 77 72 67 62 57 51
27 27 26 24 23 22 21 20 20 20 19 18 18 17 16 16 16 15 14 13 11 9 8 7 8 9 11 13 15 15 16 17 18 19 21 22 24 27 29 31 32 33 34 35 36 37 38 39 40 41 42 43 44 46 48 50 52 53 53 54 55 57 57 57 62 68 69 68 70 72 72 74 77 79 80 81 83 84 85 85 84 81 78 73 68 63 58 52
27 26 25 23 22 21 20 20 20 19 19 19 18 17 16 16 15 14 13 11 9 7 6 7 8 10 12 14 14 15 16 17 19 20 22 23 26 28 31 33 33 33 35 36 36 37 38 39 40 41 42 43 44 46 48 50 52 53 53 53 55 56 57 58 62 66 67 68 69 69 71 73 75 78 80 82 83 84 84 84 83 82 79 75 69 63 58 53
27 25 24 22 21 21 21 21 20 19 19 18 17 17 16 15 14 13 11 9 6 5 5 6 8 10 12 14 14 15 16 18 19 20 22 24 27 29 32 34 34 34 35 35 36 37 38 39 40 41 42 43 45 46 47 49 51 52 53 54 55 55 57 60 62 65 66 67 66 67 70 72 74 77 79 80 82 81 82 83 84 83 81 76 69 63 57 52
26 24 23 22 21 21 21 20 20 20 19 18 17 17 16 15 13 12 10 7 5 4 5 6 8 10 12 13 15 16 17 19 20 22 25 27 28 31 32 33 34 34 35 35 37 38 39 40 41 42 43 44 44 45 46 49 50 52 54 55 56 56 58 60 62 63 64 65 65 66 68 70 72 74 75 77 79 79 81 83 84 83 80 76 71 65 59 53
25 23 21 21 20 20 20 19 19 19 18 18 17 16 15 14 12 11 8 5 3 3 4 5 8 10 12 14 15 16 18 20 22 24 26 28 28 30 30 30 32 34 36 38 39 40 40 41 41 43 44 45 45 45 47 48 50 53 55 56 57 59 59 60 61 62 63 64 65 66 68 69 71 73 75 76 77 78 81 82 83 83 80 77 73 68 62 56
23 21 20 20 20 20 19 19 19 19 18 18 17 16 14 12 11 8 6 4 2 2 3 5 8 10 13 14 15 16 18 20 23 25 26 27 27 28 30 31 34 36 38 40 40 40 40 41 42 44 45 46 46 47 47 48 50 52 54 55 57 59 60 61 62 61 61 63 64 66 67 68 69 71 74 75 77 79 81 82 82 83 83 81 77 71 66 59
21 20 20 20 20 19 19 19 18 18 18 17 16 15 13 11 9 6 4 3 1 1 4 6 8 11 13 14 15 16 18 20 23 25 26 28 29 30 32 34 36 37 38 40 40 40 41 42 43 44 46 47 47 47 48 48 50 52 54 57 59 61 63 63 64 64 62 62 65 66 66 66 67 69 72 75 78 79 80 82 83 85 85 82 78 73 67 61
20 20 19 20 19 19 19 18 17 17 17 16 15 13 11 9 7 5 4 2 0 2 4 7 9 11 13 14 15 17 19 21 24 26 27 29 30 32 33 35 36 37 38 39 41 42 42 43 44 46 47 48 48 48 49 50 51 53 55 58 60 62 63 62 64 65 64 63 66 67 66 66 68 69 70 73 77 79 81 83 84 85 84 82 79 74 69 63
20 19 19 19 19 19 18 18 17 16 16 15 13 11 9 8 6 5 3 1 1 3 5 7 9 11 13 15 16 18 20 22 25 27 28 30 31 33 34 35 37 38 38 40 41 43 43 43 44 46 48 48 48 48 49 50 52 54 55 56 58 60 61 62 64 65 65 64 65 66 65 64 67 68 69 72 76 78 81 82 82 82 82 82 80 76 71 66
19 20 20 19 19 18 18 17 17 16 14 13 12 10 8 6 5 3 2 1 2 4 6 8 10 12 14 15 17 19 21 24 26 27 29 30 32 34 35 37 38 39 39 40 41 42 44 44 44 45 47 48 49 48 49 50 52 54 55 56 57 58 60 63 64 65 66 64 61 63 65 64 66 68 69 71 74 75 77 79 80 81 81 81 80 78 74 68
20 19 19 19 18 17 17 16 15 14 13 11 9 8 6 5 4 2 1 2 3 5 7 9 10 12 14 16 18 20 23 25 27 28 30 31 33 35 36 38 39 40 41 41 42 42 43 44 44 45 47 48 49 49 48 49 52 53 54 56 56 58 60 61 63 64 66 64 61 61 66 68 67 67 67 68 70 71 73 76 77 78 79 80 80 79 76 71
19 19 18 17 17 16 16 15 13 12 11 10 8 6 5 4 3 2 2 3 4 6 7 9 11 13 15 17 19 21 24 26 28 30 31 33 34 36 37 39 40 41 42 42 42 43 44 44 44 45 46 48 49 49 49 50 52 53 54 55 56 58 60 60 61 64 65 66 64 62 65 68 68 66 66 67 68 70 72 74 76 77 79 80 80 79 77 73
18 18 17 16 16 15 14 13 12 10 9 8 6 5 4 3 3 3 3 4 5 7 8 10 12 14 16 19 20 22 24 27 29 31 32 34 35 37 38 40 41 42 43 43 43 43 44 45 45 45 46 47 47 49 50 51 52 53 54 56 57 58 59 59 60 62 63 64 66 64 65 68 67 65 66 67 69 72 73 75 77 78 79 80 80 80 78 75
18 17 16 15 14 13 12 11 10 8 7 6 5 4 3 3 4 4 5 5 6 8 9 11 13 15 17 19 21 23 25 27 29 31 33 34 36 37 39 40 41 42 43 44 44 44 44 44 45 45 46 47 47 48 50 50 52 54 56 56 57 57 58 59 60 61 61 62 65 65 65 66 66 65 66 68 70 72 73 74 76 77 79 79 79 79 78 76
17 15 14 14 13 12 11 10 9 8 6 5 4 3 2 3 4 5 6 7 8 9 10 12 13 16 18 20 22 24 25 27 29 31 33 35 36 38 40 41 42 43 43 44 45 45 45 45 45 45 45 46 47 47 48 49 50 53 56 57 57 58 58 59 59 60 61 61 63 65 64 66 67 67 67 68 69 70 71 73 74 76 77 78 79 79 78 77
15 14 13 13 12 12 11 10 8 7 6 4 4 3 4 5 6 7 7 8 9 10 11 13 14 16 18 20 22 24 26 28 30 32 33 35 36 38 40 41 42 43 44 45 45 46 46 46 45 45 45 46 46 46 47 48 50 52 55 57 58 58 58 58 58 59 60 61 64 64 63 65 68 68 66 66 67 68 70 71 72 74 75 77 78 78 78 77
14 13 13 13 12 11 10 9 8 7 7 6 6 6 7 8 9 9 9 9 10 11 12 14 15 17 19 21 23 25 27 29 30 32 34 35 37 38 40 41 43 43 44 45 46 46 47 47 47 47 46 46 47 48 47 48 50 52 54 56 57 58 58 58 58 59 59 61 64 64 62 62 65 66 64 64 65 66 68 69 70 72 74 75 77 77 77 77
12 12 12 11 11 10 10 9 9 9 9 10 10 10 10 10 11 12 11 11 12 12 14 15 16 18 20 22 24 25 27 29 31 32 34 35 37 38 40 41 43 44 44 45 46 47 48 49 49 49 48 48 49 50 50 49 50 52 54 56 57 58 58 58 59 60 60 61 63 65 63 62 63 64 63 63 63 64 65 67 68 70 72 74 76 77 77 77
11 11 11 10 10 10 10 10 10 11 12 12 11 12 12 12 12 13 13 13 13 14 15 16 17 19 21 22 24 26 28 30 31 33 34 35 37 39 40 42 43 44 44 45 45 45 46 48 50 50 50 50 50 51 52 50 49 51 53 55 56 57 58 59 60 61 62 60 60 63 65 63 62 63 64 63 62 63 63 64 66 68 70 72 74 75 76 76
10 10 10 10 10 10 10 11 11 12 12 12 12 12 13 13 13 14 14 14 14 15 16 17 18 20 21 23 25 27 29 30 32 33 34 36 37 39 40 42 43 44 45 45 44 44 45 46 48 49 49 49 49 50 51 50 48 48 51 54 56 58 59 59 59 60 62 61 60 61 65 65 63 63 65 65 63 62 62 63 64 66 67 70 72 74 75 75
10 10 9 9 9 10 10 10 11 11 12 12 12 12 13 14 14 15 15 15 16 16 17 18 19 20 22 24 26 27 29 31 32 33 34 36 37 38 40 42 43 44 45 45 45 45 44 44 46 48 48 48 48 49 50 50 48 47 49 53 56 57 59 59 59 60 61 62 62 61 62 64 64 64 66 67 65 63 63 63 64 65 66 68 71 72 74 75
9 9 9 9 9 9 9 9 10 11 11 12 12 12 13 14 14 15 16 16 17 18 18 19 20 22 23 25 26 28 29 31 32 33 34 36 37 39 40 42 43 45 46 46 46 46 45 44 44 45 47 48 48 49 50 51 49 48 48 52 55 56 58 59 59 59 61 62 63 62 61 63 64 64 66 67 66 65 65 64 65 66 66 68 69 71 72 74
9 9 9 9 9 8 8 9 9 10 11 11 11 12 13 14 14 15 16 17 18 19 19 20 21 23 24 25 26 28 29 30 32 33 34 36 37 39 40 42 44 45 46 46 47 47 46 45 44 44 45 47 47 48 50 51 50 49 48 50 54 56 58 59 59 59 60 61 62 63 62 63 64 64 64 65 66 66 67 66 65 65 66 67 68 70 71 72
9 9 9 9 9 8 8 9 9 9 10 10 11 11 12 13 14 15 17 18 19 19 20 21 22 23 24 25 26 28 29 30 32 33 34 36 37 39 40 42 44 45 46 46 47 47 47 47 46 45 44 45 46 47 50 51 50 49 48 50 53 55 57 58 59 59 60 61 62 63 63 62 63 63 62 64 66 66 66 66 64 64 65 65 66 68 69 70
9 9 10 9 9 9 8 9 9 9 9 10 10 11 12 13 14 16 17 18 19 19 20 21 22 24 25 26 27 28 29 30 32 33 34 36 37 39 40 42 43 45 46 46 47 48 48 48 47 46 45 46 47 48 49 51 50 49 49 50 52 54 55 57 60 60 60 61 62 63 63 62 62 63 62 63 65 65 66 66 65 63 63 64 64 66 67 68
9 10 10 10 10 9 9 9 9 9 9 9 10 11 12 13 14 15 17 18 19 20 21 22 23 24 25 26 27 28 29 31 32 33 34 35 37 38 40 41 43 44 45 46 46 47 48 49 49 48 47 46 48 49 49 50 50 50 50 51 51 54 55 56 59 60 60 62 62 62 63 63 63 63 63 63 65 65 65 66 65 63 62 63 63 65 66 66
Wind_Direction
177 181 185 184 185 188 188 187 189 190 186 181 175 173 174 171 165 152 134 129 125 112 99 96 94 91 88 85 76 67 64 63 58 54 51 50 48 44 39 33 29 25 22 19 16 13 10 8 6 5 5 3 1 359 357 355 351 348 346 345 343 341 340 337 336 336 334 333 330 328 327 324 322 321 319 316 316 314 310 309 306 301 297 295 292 289 286 283
178 178 184 186 187 188 187 186 187 186 184 183 182 179 175 166 154 141 136 131 123 118 112 105 101 98 93 84 77 74 72 67 62 58 54 52 47 41 35 30 27 24 21 18 14 11 8 7 6 5 4 2 359 357 354 352 349 347 345 344 342 340 339 337 336 336 335 334 331 329 328 326 323 322 322 320 320 317 314 313 308 301 297 293 290 287 285 283
179 177 182 186 187 188 188 186 185 185 184 186 187 179 168 156 148 140 135 131 126 122 114 108 106 102 92 82 79 78 72 65 62 60 55 50 43 37 32 28 25 22 18 14 11 10 8 8 7 5 3 360 357 354 352 350 348 347 345 343 342 340 339 338 338 337 336 335 332 331 329 327 326 325 325 324 323 319 317 314 307 301 296 291 289 286 285 284
180 178 181 182 184 186 186 185 184 185 186 189 185 171 158 150 145 140 136 133 128 122 116 112 107 100 90 84 81 76 71 67 65 61 54 46 39 33 30 27 24 21 16 13 11 10 9 8 6 3 1 357 354 353 350 349 348 347 345 343 342 340 339 339 338 338 337 335 333 332 330 329 329 328 327 326 324 320 316 311 305 300 295 290 288 287 286 284
178 176 177 177 179 181 183 184 184 185 186 186 176 160 153 148 143 140 137 132 126 122 119 114 106 97 90 87 84 77 74 72 68 59 48 40 35 31 30 27 24 21 17 15 12 10 9 6 3 360 357 354 352 352 350 349 348 347 345 343 342 340 339 339 339 339 338 336 335 333 333 333 331 330 330 328 325 320 313 307 302 298 294 291 289 288 287 286
177 172 172 173 176 180 181 183 185 184 180 174 163 152 150 146 143 141 135 130 125 122 119 111 103 97 94 94 88 81 77 71 63 50 40 35 33 32 30 27 25 22 18 14 10 8 6 2 359 356 355 353 352 351 350 349 347 347 345 343 341 340 340 340 340 340 339 337 337 336 335 335 333 331 331 329 324 318 310 304 299 296 294 293 292 291 290 288
174 170 171 175 179 181 179 181 184 177 168 162 154 150 149 145 143 140 135 130 125 122 116 108 103 101 102 98 90 86 82 69 55 42 36 35 35 34 31 29 25 20 14 10 7 4 1 357 355 354 354 352 351 350 349 349 347 346 344 342 341 340 340 341 341 341 341 339 339 338 337 337 335 333 333 330 324 316 309 304 300 298 297 296 295 294 292 289
171 170 173 175 176 176 175 177 174 163 158 155 150 148 147 145 142 138 134 130 125 120 112 107 107 106 105 98 93 91 78 62 47 40 38 38 38 34 31 27 20 13 9 5 2 359 356 354 353 353 353 351 350 349 348 348 347 345 343 342 341 341 342 342 343 342 342 342 341 341 339 339 338 336 334 330 324 317 310 305 302 300 300 299 298 296 294 291
170 170 171 169 170 173 170 167 161 155 154 150 148 148 146 143 140 137 135 130 124 118 112 112 111 109 108 101 94 83 66 53 43 43 43 41 38 33 29 21 13 9 6 2 358 356 355 354 354 353 352 350 350 349 348 347 346 345 344 342 341 342 343 344 345 344 343 344 343 343 342 340 340 338 336 332 326 320 313 308 304 303 302 301 300 299 296 293
172 169 167 167 169 169 162 158 156 152 150 147 147 147 144 141 139 137 133 129 126 122 117 114 113 117 114 99 87 71 57 50 46 46 45 42 37 30 22 14 9 6 2 360 358 358 357 355 353 352 351 350 349 348 347 346 345 345 344 343 342 343 345 346 346 345 345 345 344 345 343 342 343 340 338 334 329 323 317 312 308 306 304 303 302 301 298 296
169 167 167 166 163 159 155 154 152 148 146 146 145 143 141 140 139 136 131 130 129 125 120 117 120 120 104 91 80 62 53 51 50 48 45 41 32 23 16 10 7 3 1 360 360 359 357 355 352 352 351 349 347 346 346 344 344 345 344 345 345 344 346 347 346 345 346 346 346 347 344 344 345 342 340 336 331 326 320 316 312 309 307 305 303 301 299 296
163 165 162 159 156 154 152 150 148 146 146 145 143 142 142 141 138 134 133 132 130 127 124 124 122 108 94 88 72 59 55 55 53 49 44 36 26 18 13 8 4 3 3 1 360 358 355 354 352 351 350 348 346 346 345 344 344 346 347 347 346 344 344 345 345 346 348 347 347 348 345 347 347 344 342 338 333 329 324 320 316 313 310 307 304 301 299 297
156 159 155 154 153 152 149 145 146 147 145 144 142 142 142 140 138 136 136 134 132 130 126 123 112 98 90 82 69 62 60 58 53 47 39 30 20 14 10 6 5 4 2 360 358 356 354 353 352 350 349 347 347 346 345 345 346 347 348 345 344 343 343 345 347 348 350 349 348 349 347 349 349 346 344 340 336 332 328 324 320 315 312 308 305 302 300 298
152 153 153 153 151 148 145 144 147 146 144 143 142 141 140 138 137 138 139 137 136 131 124 118 107 96 85 74 70 67 62 57 51 43 34 25 17 12 9 7 6 1 358 357 356 355 354 353 352 350 349 349 348 346 345 345 345 345 344 343 344 345 344 345 347 349 351 351 350 351 349 349 350 348 345 342 338 336 333 328 324 319 314 310 306 303 301 300
151 151 153 152 147 145 143 144 146 144 143 142 140 138 137 136 138 142 142 139 137 130 121 112 101 94 83 74 71 67 61 55 46 37 28 21 16 12 10 7 2 358 356 355 355 354 353 353 352 351 351 351 348 346 346 345 344 344 344 344 345 345 345 345 347 351 352 353 352 352 350 350 351 350 347 344 342 339 336 332 327 322 318 314 309 305 302 300
150 150 151 149 145 144 143 145 145 143 142 139 137 135 135 138 142 143 139 135 133 129 121 108 96 89 81 76 72 67 60 51 41 32 24 19 16 12 7 2 358 356 355 355 354 352 352 352 352 353 353 350 346 346 347 346 345 344 344 345 346 346 347 346 348 353 354 354 354 353 352 352 353 351 349 346 344 342 339 336 332 326 322 317 313 309 306 302
149 149 148 146 144 144 144 144 143 142 141 137 136 136 138 142 141 138 134 133 133 127 116 101 90 85 82 79 74 65 54 44 35 28 23 19 13 7 2 359 357 356 354 353 353 353 353 353 354 355 353 348 348 349 349 347 345 345 345 347 349 349 348 348 350 353 356 355 355 355 353 354 355 352 350 348 346 344 342 340 336 331 326 321 316 312 308 304
147 146 145 145 144 145 145 144 143 142 139 137 139 140 143 142 137 135 135 137 132 118 107 98 92 89 86 79 70 57 46 38 30 24 20 14 8 3 1 359 357 355 354 354 355 355 354 353 354 353 350 349 350 351 350 349 347 347 348 348 350 352 351 350 350 353 357 357 356 356 355 355 356 354 352 351 348 347 346 344 341 338 334 329 324 318 312 308
145 144 145 145 145 146 145 144 144 142 140 141 141 142 142 140 137 137 140 138 124 109 103 100 96 91 82 70 59 49 41 33 26 20 14 9 6 4 1 359 358 357 357 357 356 355 353 353 353 350 349 352 353 352 353 352 350 350 349 349 350 353 353 351 351 353 357 358 357 357 356 356 357 356 355 353 351 350 348 347 345 343 341 337 331 325 319 314
146 146 147 147 146 147 146 145 144 143 143 143 142 141 139 139 140 141 143 133 115 106 105 101 94 86 73 62 53 43 35 27 20 15 11 9 6 4 2 1 1 0 359 356 354 353 353 352 351 351 354 355 354 354 354 353 352 350 350 351 351 353 354 352 352 354 356 358 359 357 356 358 360 359 358 355 353 352 350 348 347 345 342 337 333 329 323 319
148 149 150 149 148 147 146 146 146 145 146 144 143 141 139 141 144 145 142 126 110 107 106 97 88 78 66 56 46 37 30 23 18 13 12 10 7 5 4 3 3 1 357 356 355 354 353 353 353 355 356 355 354 354 354 354 353 351 351 352 351 352 353 353 353 354 357 359 359 359 357 359 2 1 359 357 355 353 351 349 347 345 342 338 335 333 329 326
151 152 151 150 149 148 147 147 147 148 147 145 144 143 144 144 144 146 138 119 109 108 103 92 82 70 59 50 41 32 26 20 16 14 11 10 8 7 5 4 2 360 358 356 356 355 355 355 355 356 356 355 354 354 355 356 354 353 352 352 352 352 352 353 354 356 358 358 359 0 358 360 5 3 360 359 356 355 353 350 348 345 342 340 337 335 333 332
154 154 152 150 149 148 148 148 148 149 148 146 146 146 147 145 143 143 131 116 111 109 100 88 76 64 53 45 36 28 22 17 15 14 10 8 7 6 4 2 359 359 359 357 356 355 355 356 356 356 355 354 354 354 355 356 355 354 352 352 353 353 353 353 355 357 358 357 358 1 1 2 5 4 1 0 358 356 354 352 349 346 344 342 339 338 338 337
156 154 151 151 150 150 150 149 149 151 150 147 145 146 148 147 145 139 126 117 114 108 97 84 70 59 47 37 30 24 19 15 15 13 8 6 4 3 1 358 357 358 359 357 356 355 355 356 355 355 354 354 354 354 355 355 356 355 354 354 353 355 355 354 355 357 357 358 359 1 4 4 3 4 3 2 360 358 356 353 351 348 346 344 342 342 341 340
156 153 152 152 151 151 152 151 150 152 152 148 145 148 150 149 144 134 124 120 117 109 97 80 63 54 42 31 25 21 16 14 14 11 6 4 1 360 359 357 358 359 358 357 356 355 355 355 354 354 354 354 354 354 354 355 356 356 356 355 354 355 357 356 355 355 357 360 0 2 5 4 2 4 4 2 1 359 357 355 353 350 349 348 345 344 343 340
156 154 153 153 153 153 153 151 150 151 151 148 147 151 151 147 140 131 125 123 119 110 95 75 57 47 36 26 22 16 12 12 12 8 5 3 360 358 358 359 0 359 358 357 355 354 354 355 354 353 353 353 353 353 354 356 357 358 357 356 356 356 357 357 355 355 359 1 1 2 5 3 3 5 4 3 2 360 358 356 355 353 352 350 348 345 343 341
156 155 154 155 154 154 153 152 151 152 151 150 151 152 148 143 138 132 129 128 122 108 90 69 52 41 30 24 19 13 11 12 9 7 5 2 0 359 358 1 2 359 357 356 354 354 354 354 354 353 352 352 353 353 355 356 356 358 358 357 356 356 357 358 356 357 359 1 2 3 4 3 4 5 4 3 2 0 358 356 355 354 354 352 349 346 343 342
157 156 156 156 155 155 154 153 153 154 154 154 154 151 146 142 139 136 136 135 126 107 82 59 44 34 25 20 16 12 12 10 7 6 4 2 1 360 359 1 1 359 357 354 353 354 354 354 353 352 352 351 352 355 356 356 356 357 357 357 357 357 358 358 357 358 359 1 3 4 3 5 5 4 4 2 1 0 358 356 355 355 355 354 351 347 344 342
158 158 158 157 157 157 155 153 154 156 157 157 156 152 147 144 141 141 143 141 127 103 74 50 36 27 22 17 13 12 11 7 6 5 3 2 1 360 0 360 357 356 356 354 353 354 353 353 353 352 351 351 353 355 355 355 356 356 357 358 358 358 359 359 360 359 360 1 4 4 5 6 5 4 3 2 1 360 358 357 357 357 356 354 352 349 346 344
159 160 160 159 159 158 156 156 157 158 158 159 157 153 149 147 146 146 146 141 121 94 70 47 31 23 18 14 12 11 9 5 4 3 1 1 360 359 0 358 354 353 353 353 354 354 353 353 352 352 352 352 352 353 354 355 355 355 356 358 358 358 360 1 2 0 359 2 4 6 7 6 5 5 3 2 1 360 359 359 359 359 357 356 354 352 349 347
160 161 161 161 161 160 160 161 161 161 160 159 157 155 152 152 152 151 149 142 121 87 63 41 26 19 15 13 11 8 7 4 3 2 0 359 358 358 357 354 352 353 353 355 356 355 353 352 352 352 352 351 351 352 354 354 354 355 356 356 356 358 360 2 4 2 0 2 5 7 8 7 6 5 4 3 2 1 1 1 360 360 360 359 357 355 353 350
162 162 162 162 161 162 162 164 164 164 162 160 158 157 156 157 157 159 159 149 127 67 42 27 18 16 13 12 9 6 6 4 1 359 357 356 356 355 353 353 354 354 354 355 355 354 353 352 352 352 352 351 350 351 352 353 354 355 355 355 355 357 359 2 4 5 3 2 4 7 8 8 6 4 4 4 3 2 2 1 1 1 1 0 358 356 354 352
161 161 161 161 162 163 164 164 164 164 163 162 161 161 161 162 162 166 167 152 126 20 16 13 10 11 11 8 5 4 3 1 358 357 355 354 354 354 353 354 355 355 355 354 352 353 354 353 352 352 352 351 350 350 351 352 353 354 354 354 356 357 359 1 3 5 5 2 2 6 8 8 7 6 4 3 3 3 2 1 2 2 1 359 358 356 355 352
160 159 160 162 164 166 167 167 166 165 165 165 166 166 167 167 168 170 170 156 44 351 359 1 3 7 6 2 0 1 360 358 356 355 353 353 353 353 353 354 354 354 354 353 352 353 354 353 352 352 352 351 351 350 350 352 353 353 354 356 357 358 359 0 0 3 5 3 2 5 7 6 7 7 5 3 3 3 2 2 2 2 1 360 359 358 356 354
158 159 161 163 166 168 170 170 169 169 169 169 169 169 170 170 171 177 180 191 332 342 346 351 356 359 359 358 357 357 356 354 354 352 352 353 352 352 353 353 353 353 353 353 353 353 353 353 353 352 351 350 351 351 350 351 352 353 354 355 358 359 359 359 0 1 4 6 4 3 5 6 6 7 6 4 3 3 2 2 1 2 1 0 360 359 358 357
158 159 161 164 166 169 170 171 171 172 172 171 170 170 171 170 171 180 200 259 319 334 339 344 349 350 350 352 352 353 352 351 351 350 350 351 351 351 352 352 352 352 353 353 353 353 352 353 352 351 350 350 351 351 351 351 352 353 354 355 357 358 359 359 0 1 2 6 6 1 3 6 6 7 7 5 4 3 2 2 2 2 2 2 1 1 360 359
158 159 162 165 168 170 171 172 173 174 175 175 174 175 174 174 177 192 242 293 313 325 331 337 342 344 345 346 348 349 348 348 348 349 349 350 350 350 351 351 352 352 352 352 353 353 352 352 351 351 350 350 350 351 351 351 352 354 354 355 356 357 359 360 359 0 1 4 5 2 1 5 7 7 7 5 5 5 4 3 3 3 3 3 3 2 1 1
159 161 164 167 170 172 174 176 177 179 181 182 183 186 185 186 199 227 274 298 309 318 324 330 335 340 342 343 345 345 345 346 346 347 348 348 348 349 350 350 351 351 351 351 352 352 352 351 350 350 350 351 350 349 350 352 353 354 354 355 355 356 359 0 359 359 360 1 4 4 1 3 6 6 6 6 5 5 5 4 4 4 4 4 4 3 3 2
162 164 168 171 173 175 177 180 183 186 191 194 196 202 206 215 232 256 285 302 311 316 322 327 331 336 339 341 342 343 343 343 344 345 346 347 347 348 348 349 350 351 351 350 350 351 351 350 350 350 350 351 350 349 351 353 353 354 355 356 356 356 358 359 359 359 359 359 1 3 2 2 4 4 4 5 4 3 4 4 4 4 3 3 4 4 4 3
165 168 171 173 176 178 180 182 186 190 195 201 204 210 222 242 257 270 287 302 313 318 321 325 329 332 335 337 338 340 340 341 342 344 344 345 345 346 346 348 349 350 350 349 349 349 350 350 350 349 349 350 351 351 352 353 353 354 355 355 356 356 357 358 360 359 358 358 359 2 2 1 2 4 4 4 3 2 2 3 3 3 3 3 3 4 4 4
170 173 175 177 179 180 182 184 185 187 187 191 204 218 246 274 281 285 291 300 309 316 319 322 327 329 332 334 336 336 337 338 340 341 343 343 344 344 345 347 348 349 349 349 348 347 348 349 349 349 349 350 351 352 351 352 354 355 355 354 355 356 357 357 359 359 358 357 358 1 1 359 1 4 5 3 2 1 2 3 3 2 2 2 3 3 4 4
175 179 181 183 184 183 186 186 187 191 195 209 235 259 280 292 295 297 299 301 306 312 317 320 324 327 329 331 333 334 335 336 337 339 341 342 343 344 344 345 347 348 348 348 348 347 347 348 348 348 348 349 350 352 352 352 354 356 355 354 354 356 357 357 358 359 358 357 357 0 1 359 359 2 4 3 1 1 1 2 2 2 2 2 2 3 4 4
181 186 188 190 191 191 193 196 201 214 229 245 260 272 280 287 292 296 300 304 306 308 313 317 320 323 326 328 330 331 333 334 336 337 339 341 342 343 343 344 345 346 348 348 348 347 346 345 347 347 346 347 349 351 352 352 353 355 355 353 353 355 356 357 357 358 359 357 356 359 2 360 358 0 2 2 2 1 1 1 2 2 2 1 2 3 3 4
186 192 193 197 201 203 208 217 228 241 252 261 269 274 277 282 287 291 295 301 306 308 310 313 317 320 323 325 326 329 330 332 334 336 338 340 341 342 342 342 344 345 347 348 348 347 346 344 345 345 345 347 348 350 351 352 352 354 355 354 353 353 355 356 356 357 359 359 356 357 0 0 358 358 1 2 2 2 1 1 1 1 1 2 2 2 3 3
191 195 198 205 211 218 229 241 250 259 264 267 271 275 276 278 283 288 291 297 303 307 308 311 314 317 320 322 324 326 328 330 332 334 337 339 340 340 341 341 343 344 346 347 348 348 347 345 344 345 345 346 348 349 350 350 351 353 353 353 352 352 354 356 357 357 358 359 357 355 358 1 359 357 359 1 1 2 2 1 1 2 1 2 2 2 2 3
195 200 206 215 223 232 243 252 260 265 269 271 272 275 277 276 280 285 289 293 298 303 307 309 312 315 318 320 322 324 325 328 330 333 336 338 339 339 340 340 342 343 344 345 347 347 347 346 345 344 345 346 347 348 349 349 350 350 351 352 352 352 353 355 357 357 357 358 358 356 356 359 359 357 358 360 1 2 2 1 2 2 2 2 2 2 2 3
201 207 216 225 233 241 250 258 265 268 272 274 275 276 277 278 279 283 288 292 295 300 305 308 311 314 316 318 319 321 324 326 329 332 334 336 338 338 339 340 341 342 343 344 346 347 347 347 345 344 344 345 346 347 348 348 348 348 350 351 352 352 353 354 356 356 356 357 358 358 355 356 357 357 357 359 360 0 1 1 1 2 2 2 2 2 2 2
208 215 224 232 239 248 256 263 270 274 275 276 277 278 279 280 281 284 287 291 293 298 302 306 310 312 314 316 318 320 323 325 328 331 333 335 336 337 338 339 340 341 342 342 344 345 346 346 346 344 343 343 344 346 347 348 347 347 348 350 352 352 352 353 355 356 356 356 357 358 357 355 357 357 356 358 359 359 0 1 1 2 2 2 2 1 2 2
214 221 229 237 245 254 261 266 272 277 279 279 280 281 281 283 285 287 289 291 293 297 301 305 309 311 313 314 316 319 322 324 327 330 332 333 335 336 337 338 339 340 340 341 342 343 344 344 344 345 344 343 343 345 346 347 348 347 347 349 352 353 352 352 354 355 356 356 356 358 359 357 356 357 356 356 358 358 359 0 1 1 1 1 1 1 1 2
221 227 234 241 249 256 264 270 274 278 282 284 285 285 286 288 290 291 292 293 295 298 302 305 308 311 313 314 315 318 321 324 327 329 331 332 334 335 336 337 337 339 339 340 340 341 342 343 343 344 344 342 342 343 345 347 348 346 347 349 352 353 352 352 353 355 355 356 356 357 358 358 357 357 356 355 357 358 358 359 0 0 1 1 1 0 0 1
228 234 239 245 251 258 267 275 279 282 286 289 290 290 291 293 294 295 295 296 298 300 303 306 308 310 312 313 314 317 319 323 326 328 330 331 332 334 335 336 336 337 338 339 339 339 340 341 341 342 343 343 342 343 344 346 346 347 348 350 351 353 354 352 352 354 355 355 355 356 357 358 357 357 356 355 356 357 357 358 359 360 0 0 360 0 0 0
237 241 244 249 253 259 268 276 282 286 289 292 294 296 297 299 300 300 299 299 300 302 304 306 307 309 311 312 313 315 318 320 323 326 328 330 331 332 334 334 335 336 337 338 338 338 339 340 340 341 343 344 343 344 344 344 346 349 350 350 349 351 354 353 351 353 354 354 355 355 355 356 356 356 357 355 355 357 357 357 358 359 360 360 359 360 360 360